Marietta, GA

2:26 PM EDT on June 25, 2017 (GMT -0400)
Dobbins Air Force Base

Weather History for KMGE - August, 2014

Change the Weather History Date:

Saturday, August 9, 2014

  Actual Average Record
Temperature  
Mean Temperature 78 °F -  
Max Temperature 87 °F 85 °F 98 °F (2007)
Min Temperature 69 °F 68 °F 64 °F (1997)
Cooling Degree Days 13    
Growing Degree Days 28 (Base 50)    
Moisture  
Dew Point 71 °F    
Average Humidity 93    
Maximum Humidity 100    
Minimum Humidity 62    
Precipitation  
Precipitation 0.38 in - - ()
Sea Level Pressure  
Sea Level Pressure 30.04 in    
Wind  
Wind Speed 4 mph (ENE)    
Max Wind Speed 15 mph    
Max Gust Speed 23 mph    
Visibility 7 miles    
Events Rain , Thunderstorm    
Averages and records for this station are not official NWS values.
T = Trace of Precipitation, MM = Missing Value Source: NWS Daily Summary

Daily Weather History Graph

Daily Weather History Graph

Search for Another Location

Airport or City:

Trip Planner

Search our weather history database for the weather conditions in past years. The results will help you decide how hot, cold, wet, or windy it might be!

Date:

Astronomy

Aug. 09, 2014 Rise Set
Actual Time 6:55 AM EDT 8:31 PM EDT
Civil Twilight 6:28 AM EDT 8:57 PM EDT
Nautical Twilight 5:56 AM EDT 9:30 PM EDT
Astronomical Twilight 5:22 AM EDT 10:03 PM EDT
Moon 7:33 PM EDT (8/9) 5:35 AM EDT (8/9)
Length of Visible Light 14h 29m
Length of Day
13h 35m
Waxing Gibbous, 98% of the Moon is Illuminated
Aug 9
Waxing Gibbous
Aug 10
Full
Aug 17
Last Quarter
Aug 25
New
Sep 2
First Quarter

Hourly Weather History & Observations

Time (EDT) Temp. Heat Index Dew Point Humidity Pressure Visibility Wind Dir Wind Speed Gust Speed Precip Events Conditions
12:28 AM 69.8 °F - 69.8 °F 100% 30.08 in 10.0 mi ENE 3.5 mph - N/A   Overcast
12:33 AM 69.8 °F - 69.8 °F 100% 30.08 in 10.0 mi ENE 4.6 mph - N/A   Overcast
12:48 AM 69.8 °F - 69.8 °F 100% 30.07 in 10.0 mi NE 3.5 mph - N/A   Mostly Cloudy
12:58 AM 70.2 °F - 69.8 °F 99% 30.05 in 10.0 mi ENE 5.8 mph - N/A   Scattered Clouds
1:43 AM 69.8 °F - 69.8 °F 100% 30.06 in 9.0 mi ESE 3.5 mph - N/A   Mostly Cloudy
1:53 AM 69.8 °F - 69.8 °F 100% 30.06 in 8.0 mi ENE 3.5 mph - N/A   Scattered Clouds
1:58 AM 69.6 °F - 69.6 °F 100% 30.02 in 9.0 mi ENE 3.5 mph - N/A   Scattered Clouds
2:13 AM 69.8 °F - 69.8 °F 100% 30.06 in 10.0 mi Calm Calm - N/A   Mostly Cloudy
2:58 AM 69.6 °F - 69.6 °F 100% 30.02 in 7.0 mi ENE 3.5 mph - N/A   Overcast
3:28 AM 69.8 °F - 69.8 °F 100% 30.04 in 7.0 mi East 5.8 mph - N/A   Overcast
3:48 AM 69.8 °F - 69.8 °F 100% 30.03 in 7.0 mi East 4.6 mph - N/A   Overcast
3:58 AM 69.3 °F - 69.3 °F 100% 30.02 in 7.0 mi Variable 1.2 mph - N/A   Overcast
4:33 AM 69.8 °F - 69.8 °F 100% 30.04 in 10.0 mi ENE 3.5 mph - N/A   Overcast
4:42 AM 69.8 °F - 69.8 °F 100% 30.04 in 10.0 mi NE 2.3 mph - N/A Rain Light Rain
4:47 AM 69.8 °F - 69.8 °F 100% 30.04 in 9.0 mi NNE 1.2 mph - N/A Rain Light Rain
4:58 AM 69.4 °F - 69.4 °F 100% 30.02 in 9.0 mi Calm Calm - 0.01 in Rain Light Rain
5:03 AM 69.8 °F - 69.8 °F 100% 30.04 in 10.0 mi NE 1.2 mph - N/A   Mostly Cloudy
5:53 AM 69.8 °F - 69.8 °F 100% 30.05 in 10.0 mi North 3.5 mph - N/A   Overcast
5:58 AM 69.6 °F - 69.6 °F 100% 30.04 in 10.0 mi North 3.5 mph - 0.00 in   Overcast
6:03 AM 69.8 °F - 69.8 °F 100% 30.06 in 10.0 mi NNE 3.5 mph - N/A   Overcast
6:13 AM 69.8 °F - 69.8 °F 100% 30.06 in 10.0 mi NNE 4.6 mph - N/A   Overcast
6:18 AM 69.8 °F - 69.8 °F 100% 30.06 in 10.0 mi NNE 4.6 mph - N/A   Overcast
6:33 AM 69.8 °F - 69.8 °F 100% 30.06 in 10.0 mi NNE 3.5 mph - N/A   Overcast
6:58 AM 69.4 °F - 69.4 °F 100% 30.04 in 3.0 mi ESE 3.5 mph - N/A   Overcast
7:08 AM 69.8 °F - 69.8 °F 100% 30.06 in 3.0 mi ENE 3.5 mph - N/A   Overcast
7:28 AM 69.8 °F - 69.8 °F 100% 30.07 in 3.0 mi ENE 3.5 mph - N/A   Overcast
7:58 AM 69.8 °F - 69.8 °F 100% 30.05 in 3.0 mi NE 2.3 mph - N/A   Overcast
8:13 AM 69.8 °F - 69.8 °F 100% 30.07 in 3.0 mi ENE 4.6 mph - N/A   Overcast
8:58 AM 70.9 °F - 70.9 °F 100% 30.06 in 3.0 mi East 3.5 mph - N/A   Overcast
9:26 AM 71.6 °F - 71.6 °F 100% 30.08 in 3.0 mi East 3.5 mph - N/A   Overcast
9:56 AM 71.6 °F - 71.6 °F 100% 30.09 in 3.0 mi ENE 1.2 mph - N/A   Overcast
9:58 AM 72.3 °F - 71.2 °F 96% 30.07 in 3.0 mi Variable 1.2 mph - N/A   Overcast
10:42 AM 75.2 °F - 71.6 °F 89% 30.09 in 3.0 mi Calm Calm - N/A   Overcast
10:55 AM 75.2 °F - 71.6 °F 89% 30.09 in 4.0 mi Calm Calm - N/A   Overcast
10:58 AM 74.8 °F - 72.1 °F 91% 30.08 in 4.0 mi Calm Calm - N/A   Overcast
11:31 AM 77.0 °F - 73.4 °F 89% 30.10 in 4.0 mi Calm Calm - N/A   Overcast
11:38 AM 78.8 °F - 73.4 °F 83% 30.10 in 5.0 mi Variable 1.2 mph - N/A   Overcast
11:58 AM 78.3 °F - 72.5 °F 82% 30.08 in 5.0 mi Variable 1.2 mph - N/A   Haze
12:58 PM 81.0 °F 85.8 °F 73.0 °F 77% 30.07 in 7.0 mi WNW 3.5 mph - N/A   Mostly Cloudy
1:01 PM 80.6 °F 85.4 °F 73.4 °F 79% 30.09 in 7.0 mi NNW 1.2 mph - N/A   Mostly Cloudy
1:58 PM 83.8 °F 89.8 °F 72.7 °F 69% 30.04 in 10.0 mi WSW 3.5 mph - N/A   Mostly Cloudy
2:58 PM 85.5 °F 92.2 °F 73.0 °F 66% 30.00 in 10.0 mi East 8.1 mph - N/A   Mostly Cloudy
3:58 PM 85.3 °F 91.8 °F 72.9 °F 66% 29.97 in 10.0 mi SSW 4.6 mph - N/A   Mostly Cloudy
4:58 PM 87.1 °F 94.1 °F 72.5 °F 62% 29.95 in 10.0 mi South 3.5 mph - N/A   Mostly Cloudy
5:58 PM 86.0 °F 92.6 °F 72.5 °F 64% 29.95 in 10.0 mi South 4.6 mph - N/A   Mostly Cloudy
6:58 PM 85.1 °F 91.1 °F 72.0 °F 65% 29.95 in 10.0 mi SSE 1.2 mph - N/A   Mostly Cloudy
7:30 PM 78.8 °F - 73.4 °F 83% 29.99 in 5.0 mi WNW 15.0 mph 23.0 mph N/A Rain , Thunderstorm Light Rain
7:39 PM 77.0 °F - 75.2 °F 94% 30.00 in 3.0 mi WNW 12.7 mph - N/A Rain , Thunderstorm Light Thunderstorms and Rain
7:58 PM 73.4 °F - 71.6 °F 94% 30.00 in 2.0 mi South 11.5 mph - 0.03 in Rain , Thunderstorm Thunderstorms and Rain
8:26 PM 73.4 °F - 73.4 °F 100% 30.02 in 7.0 mi South 8.1 mph - N/A Rain , Thunderstorm Light Thunderstorms and Rain
8:49 PM 71.6 °F - 71.6 °F 100% 30.03 in 9.0 mi SE 6.9 mph - N/A   Light Drizzle
8:55 PM 71.6 °F - 71.6 °F 100% 30.03 in 9.0 mi ESE 5.8 mph - N/A   Overcast
8:58 PM 72.5 °F - 72.1 °F 99% 30.01 in 10.0 mi ESE 5.8 mph - 0.34 in   Overcast
9:58 PM 72.3 °F - 72.1 °F 99% 30.03 in 10.0 mi SW 4.6 mph - N/A   Mostly Cloudy
10:58 PM 72.3 °F - 72.1 °F 99% 30.02 in 10.0 mi SSW 2.3 mph - N/A   Scattered Clouds
11:58 PM 72.5 °F - 72.1 °F 99% 30.01 in 10.0 mi West 2.3 mph - N/A   Mostly Cloudy